Weather Roundup
Issued by NWS Chicago, IL

Home | Current Version | Previous Version | Graphics & Text | Print | Product List | Glossary On
Versions: 1 2 3 4 5 6 7 8 9 10 11 12 13 14 15 16 17 18 19 20 21 22 23 24 25 26 27 28 29 30 31 32 33 34 35 36 37 38 39 40 41 42 43 44 45 46 47 48 49 50
000
NZUS59 KLOT 202206
HRRLOT

CHICAGO AREA WEATHER ROUNDUP
NATIONAL WEATHER SERVICE CHICAGO/ROMEOVILLE IL
500 PM CDT WED AUG 20 2014

NOTE: "FAIR" INDICATES FEW OR NO CLOUDS BELOW 12,000 FEET WITH NO
SIGNIFICANT WEATHER AND/OR OBSTRUCTIONS TO VISIBILITY.

* THESE STATIONS ARE NOT UNDER NWS QUALITY CONTROL. THEY ALSO MAY NOT
  REPORT WEATHER SUCH AS PRECIPITATION OR FOG.

ILZ005-006-012>014-019>023-202300-
NORTHEAST ILLINOIS

CITY           SKY/WX    TMP DP  RH WIND       PRES   REMARKS
OHARE          PTSUNNY   85  63  47 W12       29.87R HX  86
MIDWAY         PTSUNNY   86  66  51 SW9       29.86S HX  88
AURORA         PTSUNNY   85  65  51 SW9       29.89R HX  86
LANSING*       MOSUNNY   84  64  52 SW10      29.88S HX  85
JOLIET*        PTSUNNY   83  65  54 SW7       29.89R HX  84
WAUKEGAN       MOSUNNY   84  65  52 VRB5      29.85S HX  86
DUPAGE AIRPORT MOSUNNY   84  66  54 SW9       29.88R HX  86
WHEELING       MOSUNNY   86  64  47 W9        29.88R HX  87
KANKAKEE*      MOSUNNY   82  72  71 W7        29.89F HX  86
MORRIS*        PTSUNNY   83  70  65 SW8       29.89S HX  87
LEWIS AIRPORT* PTSUNNY   82  66  57 SW12      29.88R HX  84
NORTHERLY IS     N/A     84  61  45 SW5         N/A  HX  84
$$

WIZ051-052-058>065-066-070>072-202300-
SOUTHEAST WISCONSIN

CITY           SKY/WX    TMP DP  RH WIND       PRES   REMARKS
MILWAUKEE      MOSUNNY   74  66  76 E12       29.87S
KENOSHA*       MOSUNNY   84  67  56 NW7       29.87S HX  86
RACINE*        SUNNY     76  67  73 E9        29.88S
BURLINGTON     MOSUNNY   80  64  57 W5        29.87R HX  82
WAUKESHA       PTSUNNY   81  63  54 NW3       29.88F HX  82
WEST BEND      PTSUNNY   73  63  68 E6        29.88S
$$

INZ001>003-010>013-019-020-202300-
NORTHWEST INDIANA

CITY           SKY/WX    TMP DP  RH WIND       PRES   REMARKS
GARY*          MOSUNNY   86  63  45 SW9       29.87S HX  87
MICHIGAN CITY* NOT AVBL
RENSSELAER*    NOT AVBL
VALPARAISO     SUNNY     84  64  50 SW10      29.89F HX  85
$$

LMZ740>746-202300-
SOUTHERN LAKE MICHIGAN

STATION/POSITION TIME  SKY/WX   TEMP WIND        PRES    VSBY
                                AIR  DIR/SP/G
                 (UTC)          (F)  (DEG/KT/KT) (MB)    (MI)
HARRISON CRIB    2200            83  250/  9/ 12   N/A
BURNHAM HARBOR   2200            85  240/  6/ 10   N/A
CALUMET HARBOR   2200            84  190/  7/  9 1010.1F
BURNS HARBOR     2100            83  250/ 13/ 16   N/A
MICHIGAN CITY    2200            79  220/  3/  5   N/A
$$

ABBREVIATIONS USED IN REMARKS
   TC - TEMPERATURE IN CELSIUS
  WCI - WIND CHILL INDEX
   HX - HEAT INDEX
  VSB - VISIBILITY
$$



USA.gov is the U.S. government's official web portal to all federal, state and local government web resources and services.